TimeCDT,TemperatureF,Dew PointF,Humidity,Sea Level PressureIn,VisibilityMPH,Wind Direction,Wind SpeedMPH,Gust SpeedMPH,PrecipitationIn,Events,Conditions,WindDirDegrees,DateUTC
12:53 AM,64.9,57.9,78,30.04,10.0,South,6.9,-,N/A,,Clear,170,2013-08-19 05:53:00
1:53 AM,64.0,57.9,80,30.04,9.0,South,3.5,-,N/A,,Clear,190,2013-08-19 06:53:00
2:53 AM,64.0,59.0,84,30.04,8.0,South,3.5,-,N/A,,Overcast,190,2013-08-19 07:53:00
3:53 AM,64.9,60.1,84,30.03,8.0,SSW,5.8,-,N/A,,Scattered Clouds,200,2013-08-19 08:53:00
4:53 AM,64.9,60.1,84,30.01,8.0,SSW,6.9,-,N/A,,Clear,210,2013-08-19 09:53:00
5:53 AM,64.9,60.1,84,30.01,8.0,South,5.8,-,N/A,,Partly Cloudy,170,2013-08-19 10:53:00
6:53 AM,64.0,59.0,84,30.00,6.0,South,4.6,-,N/A,,Haze,180,2013-08-19 11:53:00
7:53 AM,64.9,60.1,84,30.01,7.0,South,5.8,-,N/A,,Clear,190,2013-08-19 12:53:00
8:53 AM,70.0,61.0,73,30.01,10.0,South,11.5,-,N/A,,Clear,190,2013-08-19 13:53:00
9:53 AM,75.0,63.0,66,30.00,10.0,SSW,12.7,-,N/A,,Clear,200,2013-08-19 14:53:00
10:53 AM,79.0,63.0,58,29.99,10.0,SSW,13.8,-,N/A,,Partly Cloudy,200,2013-08-19 15:53:00
11:53 AM,81.0,64.9,58,29.98,10.0,SSW,12.7,-,N/A,,Partly Cloudy,200,2013-08-19 16:53:00
12:53 PM,84.0,66.0,55,29.96,10.0,South,13.8,20.7,N/A,,Clear,190,2013-08-19 17:53:00
1:53 PM,84.9,66.0,53,29.95,10.0,South,17.3,23.0,N/A,,Clear,190,2013-08-19 18:53:00
2:53 PM,86.0,66.0,51,29.94,10.0,SSW,15.0,24.2,N/A,,Clear,200,2013-08-19 19:53:00
3:53 PM,87.1,66.0,49,29.93,10.0,South,15.0,-,N/A,,Clear,190,2013-08-19 20:53:00
4:53 PM,86.0,66.0,51,29.92,10.0,South,15.0,-,N/A,,Clear,190,2013-08-19 21:53:00
5:53 PM,84.9,66.0,53,29.91,10.0,South,16.1,19.6,N/A,,Clear,180,2013-08-19 22:53:00
6:53 PM,82.9,66.9,58,29.90,10.0,South,11.5,-,N/A,,Clear,190,2013-08-19 23:53:00
7:53 PM,80.1,66.9,64,29.91,10.0,South,9.2,-,N/A,,Clear,180,2013-08-20 00:53:00
8:53 PM,78.1,66.9,68,29.92,10.0,South,11.5,-,N/A,,Overcast,180,2013-08-20 01:53:00
9:53 PM,75.0,66.9,76,29.93,10.0,South,9.2,-,N/A,,Clear,180,2013-08-20 02:53:00
10:53 PM,73.0,66.9,81,29.93,10.0,South,9.2,-,N/A,,Clear,170,2013-08-20 03:53:00
11:53 PM,72.0,66.0,81,29.92,9.0,SSE,9.2,-,N/A,,Scattered Clouds,160,2013-08-20 04:53:00